EW7175 Weather Reports


Display with metric or nautical units.
time (UTC)temp
F
wind
direction
speed
MPH
gust
MPH
rain 1hr
in
rain 24hr
in
rain mn
in
humidity
%
barometer
mb
20260903211520 78 38 0.0 0.0 0.02 0.15 0.13 94 1011.5
20260903210017 78 39 0.0 0.0 0.02 0.15 0.13 94 1011.7
20260903204517 78 38 0.0 0.0 0.02 0.15 0.13 94 1011.8
20260903203027 78 38 0.0 0.0 0.01 0.14 0.12 94 1011.9
20260903201520 78 46 0.0 0.0 0.00 0.13 0.11 94 1011.9
20260903200015 78 26 0.0 0.0 0.00 0.13 0.11 94 1011.8
20260903194516 78 26 0.0 0.0 0.10 0.13 0.11 94 1011.9
20260903193023 77 355 0.0 0.0 0.10 0.13 0.11 94 1012.0
20260903191512 77 5 0.0 0.0 0.10 0.13 0.11 92 1012.3
20260903190011 78 5 0.0 0.0 0.10 0.13 0.11 89 1012.2
20260903184506 80 328 0.0 0.0 0.00 0.03 0.01 85 1012.6
20260903183006 81 164 0.0 0.0 0.00 0.03 0.01 85 1012.9
20260903181502 82 30 0.0 0.0 0.00 0.03 0.01 85 1012.7
20260903180104 84 64 0.0 0.0 0.00 0.03 0.01 79 1012.6
20260903180000 84 95 0.0 0.0 0.00 0.03 0.01 80 1012.6
20260903174601 87 16 0.0 0.0 0.00 0.03 0.01 80 1012.6
20260903173100 87 29 0.0 0.0 0.00 0.03 0.01 77 1012.7
20260903171613 87 269 0.0 0.0 0.00 0.03 0.01 78 1012.3
20260903164629 87 67 0.0 0.0 0.00 0.03 0.01 81 1012.7
20260903163101 87 248 0.0 0.0 0.00 0.03 0.01 80 1012.6
20260903161552 86 248 0.0 0.0 0.00 0.03 0.01 82 1012.6
20260903160053 85 248 0.0 0.0 0.00 0.03 0.01 87 1012.5
20260903154550 85 153 0.0 0.0 0.00 0.03 0.01 87 1012.7
20260903153042 85 153 0.0 0.0 0.00 0.03 0.01 85 1012.6
20260903151540 85 153 0.0 0.0 0.00 0.03 0.01 85 1012.7
20260903150039 85 153 0.0 0.0 0.00 0.03 0.01 85 1012.8
20260903144544 85 153 0.0 0.0 0.00 0.03 0.01 85 1013.0
20260903143044 84 154 0.0 0.0 0.00 0.03 0.01 86 1012.9
20260903141534 83 154 0.0 0.0 0.00 0.03 0.01 87 1012.8
20260903140040 83 154 0.0 1.0 0.00 0.03 0.01 88 1012.8
20260903134531 82 154 0.0 0.0 0.00 0.03 0.01 88 1012.8
20260903133029 82 154 0.0 1.0 0.00 0.03 0.01 87 1012.7
20260903131529 82 154 0.0 1.0 0.00 0.03 0.01 86 1012.5
20260903130029 82 154 0.0 1.0 0.00 0.03 0.01 86 1012.4
20260903124527 82 154 0.0 2.0 0.00 0.03 0.01 85 1012.2
20260903123026 82 154 0.0 5.0 0.00 0.03 0.01 85 1012.1
20260903121531 82 157 0.0 6.0 0.00 0.03 0.01 86 1011.9
20260903120037 82 181 0.0 3.0 0.00 0.03 0.01 86 1011.8
20260903114521 82 154 1.0 3.0 0.00 0.03 0.01 87 1011.7
20260903113021 82 148 1.0 4.0 0.00 0.03 0.01 87 1011.7
20260903111515 82 186 0.0 4.0 0.00 0.03 0.01 87 1011.7
20260903110012 82 192 1.0 4.0 0.00 0.03 0.01 87 1011.7
20260903104512 83 164 0.0 3.0 0.00 0.03 0.01 88 1011.6
20260903103011 82 165 1.0 5.0 0.00 0.03 0.01 88 1011.3
20260903101520 82 146 0.0 3.0 0.00 0.03 0.01 88 1011.3
20260903100021 82 187 3.0 6.0 0.00 0.03 0.01 88 1011.3
20260903094523 82 122 0.0 3.0 0.00 0.03 0.01 88 1011.4
20260903093009 82 154 0.0 5.0 0.00 0.03 0.01 88 1011.3
20260903091509 82 178 2.0 6.0 0.00 0.03 0.01 87 1011.4
20260903090009 82 172 1.0 4.0 0.00 0.03 0.01 87 1011.3
20260903084508 82 162 1.0 5.0 0.00 0.03 0.01 88 1011.3
20260903083007 82 181 1.0 5.0 0.00 0.03 0.01 89 1011.2
20260903081507 82 178 0.0 6.0 0.00 0.03 0.01 89 1011.1
20260903080007 82 178 1.0 5.0 0.00 0.03 0.01 89 1011.1
20260903074506 82 136 1.0 4.0 0.00 0.03 0.01 90 1011.0
20260903073006 82 180 0.0 3.0 0.00 0.03 0.01 91 1011.0
20260903071507 82 181 0.0 4.0 0.00 0.03 0.01 91 1011.1
20260903070004 82 138 0.0 4.0 0.00 0.03 0.01 91 1011.3
20260903064502 82 163 0.0 4.0 0.01 0.03 0.01 91 1011.4
20260903063001 82 201 0.0 2.0 0.01 0.03 0.01 92 1011.3
20260903061604 82 167 0.0 5.0 0.01 0.03 0.01 91 1011.6
20260903060101 82 155 0.0 2.0 0.01 0.03 0.01 90 1011.9
20260903054552 83 155 0.0 4.0 0.00 0.02 0.00 87 1012.2
20260903053052 84 210 1.0 6.0 0.00 0.02 0.00 86 1012.4
20260903051607 83 164 0.0 5.0 0.00 0.02 0.00 86 1012.6
20260903050053 83 172 0.0 5.0 0.00 0.02 0.00 86 1012.7
20260903044549 83 204 0.0 6.0 0.00 0.02 0.02 86 1012.7
20260903043144 83 140 1.0 4.0 0.00 0.02 0.02 87 1012.9
20260903041545 82 184 0.0 1.0 0.00 0.02 0.02 90 1012.9
20260903040046 81 165 0.0 8.0 0.00 0.02 0.02 92 1012.5
20260903034543 80 148 0.0 2.0 0.00 0.02 0.02 93 1012.3
20260903033043 80 119 0.0 0.0 0.00 0.02 0.02 92 1012.2
20260903031542 80 119 0.0 0.0 0.00 0.02 0.02 92 1012.2
20260903030043 80 119 0.0 0.0 0.00 0.02 0.02 92 1011.9
20260903024545 80 119 0.0 0.0 0.00 0.02 0.02 92 1011.7
20260903023041 80 119 0.0 0.0 0.01 0.02 0.02 91 1011.3
20260903021541 80 119 0.0 1.0 0.02 0.02 0.02 91 1011.1
20260903020042 80 119 0.0 2.0 0.02 0.02 0.02 90 1010.9
20260903014546 80 119 1.0 3.0 0.02 0.02 0.02 89 1010.9
20260903013049 82 147 0.0 8.0 0.01 0.01 0.01 86 1011.4
20260903011538 83 11 0.0 0.0 0.00 0.00 0.00 80 1011.5
20260903010041 86 5 0.0 0.0 0.00 0.00 0.00 75 1011.2
20260903004537 91 268 0.0 0.0 0.00 0.00 0.00 58 1010.5
20260903003039 91 126 0.0 0.0 0.00 0.00 0.00 58 1009.6
20260903001537 92 151 0.0 9.0 0.00 0.00 0.00 60 1009.4
20260903000037 92 142 3.0 9.0 0.00 0.00 0.00 60 1009.2
20260902234536 93 160 0.0 0.0 0.00 0.00 0.00 60 1009.0
20260902233036 93 143 0.0 0.0 0.00 0.00 0.00 58 1009.0
20260902231536 94 138 3.0 9.0 0.00 0.00 0.00 57 1009.1
20260902230032 94 149 0.0 0.0 0.00 0.00 0.00 57 1008.9
20260902224541 95 161 0.0 0.0 0.00 0.00 0.00 57 1009.1
20260902223029 96 152 0.0 0.0 0.00 0.00 0.00 55 1009.0
20260902221528 96 190 0.0 0.0 0.00 0.00 0.00 54 1009.0
20260902220027 95 182 0.0 0.0 0.00 0.00 0.00 55 1009.1
20260902214526 96 184 0.0 0.0 0.00 0.00 0.00 53 1009.1
20260902213029 96 162 0.0 0.0 0.00 0.00 0.00 55 1009.2